Location: Caltech
(34.1382°N, 118.1253°W)
Time: 19:55:37
(UTC-07:00)

Iridium 68 - Visible Passes

Search period start: 20 April 2015 00:00
Search period end: 30 April 2015 00:00
Orbit: 776 x 779 km, 86.4° (Epoch: 20 April)

Date Brightness Start Highest point End Pass type
(mag) Time Alt. Az. Time Alt. Az. Time Alt. Az.
20 Apr 9.0 00:39:45 11° NNW 00:39:45 11° NNW 00:40:02 10° NNW visible
21 Apr 8.8 00:06:08 13° N 00:06:08 13° N 00:06:45 10° N visible
21 Apr 8.7 23:32:31 13° NNE 23:32:31 13° NNE 23:33:03 10° NNE visible
22 Apr 8.7 22:58:54 10° NNE 22:58:54 10° NNE 22:58:54 10° NNE visible
23 Apr 8.9 00:39:21 12° NNW 00:39:21 12° NNW 00:39:46 10° NNW visible
24 Apr 8.6 00:05:43 16° N 00:05:43 16° N 00:06:44 10° N visible
24 Apr 8.4 23:32:04 17° N 23:32:04 17° N 23:33:17 10° N visible
25 Apr 8.4 22:58:24 15° NNE 22:58:24 15° NNE 22:59:26 10° NNE visible
26 Apr 8.9 00:38:52 11° NW 00:38:52 11° NW 00:39:14 10° NNW visible
26 Apr 8.5 22:24:44 11° NE 22:24:44 11° NE 22:25:00 10° NE visible
27 Apr 8.5 00:05:11 18° NNW 00:05:11 18° NNW 00:06:35 10° NNW visible
27 Apr 8.1 23:31:31 22° N 23:31:31 22° N 23:33:22 10° N visible
28 Apr 7.9 22:57:49 23° NNE 22:57:49 23° NNE 22:59:45 10° NNE visible
29 Apr 8.0 22:24:07 18° NE 22:24:07 18° NE 22:25:42 10° NNE visible
